Flag for Russia Weather past 2 weeks in Saint-Petersburg, Russia

Now
59 °F

More clouds than sun.


Feels Like: 58 °F
Forecast: 50 / 64 °F
Wind: 8 mph from West

Location: St. Petersburg

Current Time: May 27, 2015 at 9:55:28 AM

Latest Report: May 27, 2015 at 9:30 AM


Visibility: N/A

Pressure: 29.71 "Hg

Humidity: 82%

Dew point: 54 °F

Location of Saint-PetersburgLocation

Historic Weather in Saint-Petersburg — Graph

°F

Saint-Petersburg temperature yesterday

Maximum temperature yesterday: 77 °F (at 3:00 PM)
Minimum temperature yesterday: 41 °F (at 3:30 AM)
Average temperature yesterday: 61 °F

Past Weeks' High & Low Weather Summary

 TemperatureHumidityPressure
High77 °F (May 26, 3:00 PM)100% (May 19, 12:30 AM)30.15 "Hg (May 19, 12:30 AM)
Low36 °F (May 16, 12:30 AM)27% (May 26, 11:00 AM)29.47 "Hg (May 14, 1:30 AM)
Average52 °F68%29.79 "Hg
* Reported May 12 8:00 AM — May 27 8:30 AM, Saint-Petersburg, Weather by CustomWeather, © 2015

Note: Actual official high and low records may vary slightly from our data, if they occured in-between our weather recording intervals... More about our weather records

Advertising

Saint-Petersburg weather history for previous 24 hours

 ConditionsComfort  
Time TempWeatherWind HumidityBarometerVisibility
8:30 AM
Wed, May 27
55 °FMore clouds than sun.3 mph88%29.68 "HgN/A
8:00 AM55 °FSprinkles. More clouds than sun.3 mph88%29.68 "HgN/A
7:30 AM55 °FSprinkles. More clouds than sun.6 mph82%29.71 "HgN/A
6:30 AM55 °FBroken clouds.3 mph82%29.71 "HgN/A
6:00 AM55 °FBroken clouds.1 mph82%29.68 "HgN/A
5:30 AM54 °FBroken clouds.1 mph82%29.68 "HgN/A
5:00 AM54 °FBroken clouds.1 mph82%29.71 "HgN/A
4:30 AM55 °FPartly cloudy.1 mph72%29.71 "HgN/A
4:00 AM55 °FPartly cloudy.1 mph67%29.71 "HgN/A
3:30 AM57 °FPartly cloudy.3 mph63%29.71 "HgN/A
3:00 AM57 °FPartly cloudy.3 mph63%29.71 "HgN/A
2:30 AM57 °FPartly cloudy.3 mph67%29.74 "HgN/A
2:00 AM57 °FMostly cloudy.1 mph67%29.74 "HgN/A
1:30 AM55 °FSprinkles. Mostly cloudy.6 mph82%29.77 "HgN/A
1:00 AM57 °FSprinkles. Mostly cloudy.6 mph77%29.77 "HgN/A
12:30 AM59 °FMostly cloudy.1 mph68%29.74 "HgN/A
11:30 PM
Tue, May 26
59 °FSprinkles. Mostly cloudy.1 mph68%29.77 "HgN/A
11:00 PM59 °FMostly cloudy.1 mph72%29.80 "HgN/A
10:30 PM59 °FSprinkles. Mostly cloudy.1 mph72%29.80 "HgN/A
10:00 PM61 °FSprinkles. More clouds than sun.1 mph59%29.83 "HgN/A
9:30 PM63 °FMore clouds than sun.1 mph59%29.83 "HgN/A
9:00 PM63 °FSprinkles. More clouds than sun.1 mph56%29.80 "HgN/A
8:30 PM64 °FSprinkles. More clouds than sun.1 mph49%29.83 "HgN/A
8:00 PM66 °FMore clouds than sun.1 mph43%29.80 "HgN/A
7:30 PM68 °FMore clouds than sun.6 mph40%29.80 "HgN/A
7:00 PM68 °FMore clouds than sun.1 mph43%29.80 "HgN/A
6:30 PM70 °FMore clouds than sun.6 mph43%29.83 "HgN/A
6:00 PM70 °FMore clouds than sun.1 mph40%29.83 "HgN/A
5:30 PM72 °FMore clouds than sun.1 mph38%29.83 "HgN/A
5:00 PM72 °FMore clouds than sun.1 mph31%29.83 "HgN/A
4:30 PM72 °FBroken clouds.1 mph33%29.83 "HgN/A
4:00 PM73 °FPassing clouds.3 mph31%29.86 "HgN/A
3:30 PM73 °FSunny.3 mph31%29.86 "Hg10 mi
3:00 PM77 °FPassing clouds.6 mph30%29.86 "HgN/A
2:30 PM73 °FSunny.3 mph36%29.86 "Hg10 mi
2:00 PM75 °FSunny.3 mph34%29.86 "Hg10 mi
1:30 PM73 °FPassing clouds.3 mph31%29.89 "HgN/A
1:00 PM73 °FPassing clouds.6 mph33%29.89 "HgN/A
12:30 PM72 °FSunny.3 mph36%29.89 "Hg10 mi
12:00 PM72 °FPassing clouds.8 mph33%29.89 "HgN/A
11:30 AM72 °FSunny.3 mph36%29.89 "Hg10 mi
11:00 AM72 °FPassing clouds.3 mph27%29.89 "HgN/A
10:30 AM70 °FPassing clouds.3 mph31%29.89 "HgN/A
10:00 AM68 °FPassing clouds.6 mph33%29.92 "HgN/A
9:30 AM66 °FPassing clouds.6 mph40%29.92 "HgN/A
9:00 AM64 °FSunny.3 mph43%29.92 "Hg10 mi
Weather by CustomWeather, © 2015

See weather overviewHow to use our weather pages